Погода в Дрезденко

Польша     52°50′40″N   15°50′01″E
темп.,
°C
ветер,
м/с
пор.,
м/с
влажн.,
%
обл.,
%
осадки,
мм/ч
давл.,
гПа
погр.,
м
27 февраля, сб
сб2701:00+3зсз4118833 0.0 1030394
04:00+3зсз4109526 0.0 1030457
07:00+3сз489162 0.0 1032552
10:00+5сз588399 0.0 1033586
13:00+7сз587490 0.0 1035733
16:00+8сз476519 0.0 10351101
19:00+3сз367910 0.0 1036138
22:00+2зсз23840 0.0 103756
28 февраля, вс
вс2801:00+1з379643 0.0 1037179
04:00+2з4995100 0.0 1035310
07:00+1з489788 0.0 1035309
10:00+4з478597 0.0 1035427
13:00+8зсз477578 0.0 1034631
16:00+9сз47710 0.0 1033813
19:00+4с12920 0.0 103422
22:00+3зсз12930 0.0 103422
1 марта, пн
пн101:00+2сз11940 0.0 103622
04:00+1з11940 0.0 103522
07:00+1з11950 0.0 103522
10:00+6зюз23760 0.0 1035289
13:00+10з34640 0.0 1035533
16:00+10з35670 0.0 1034562
19:00+6з23850 0.0 103423
22:00+4з23900 0.0 103429
2 марта, вт
вт201:00+3з22910 0.0 103525
04:00+2з22910 0.0 103323
07:00+1з12920 0.0 103422
10:00+7з23730 0.0 1034270
13:00+11з23560 0.0 1034529
16:00+11з13590 0.0 1032342
19:00+6зсз11760 0.0 103222
22:00+5зюз11800 0.0 103222
3 марта, ср
ср301:00+4ююв00820 0.0 103222
04:00+3юв11830 0.0 103122
07:00+3ююв22876 0.0 103022
10:00+8ююз247245 0.0 1030292
13:00+12юз255961 0.0 1028588
16:00+12юз246113 0.0 1026698
19:00+7зюз228311 0.0 102523
22:00+6зюз239092 0.0 102437